Location: Unspecified
(0.0000°N, 0.0000°E)
Time: 13:22:58
(UTC+00:00)

LightSail 2 - Visible Passes

Search period start: 21 August 2019 00:00
Search period end: 31 August 2019 00:00
Orbit: 701 x 732 km, 24.0° (Epoch: 21 August)

Date Brightness Start Highest point End Pass type
(mag) Time Alt. Az. Time Alt. Az. Time Alt. Az.
21 Aug 5.4 04:12:49 58° SSE 04:12:49 58° SSE 04:17:10 10° ESE visible
22 Aug 8.0 03:19:56 11° ESE 03:19:56 11° ESE 03:20:12 10° ESE visible
22 Aug 6.3 04:59:00 22° SW 05:00:41 27° SSW 05:05:04 10° SE visible
23 Aug 6.8 04:06:02 24° SSE 04:06:02 24° SSE 04:08:28 10° SE visible
24 Aug 6.9 04:52:02 16° SSW 04:52:31 16° SSW 04:55:39 10° SSE visible
25 Aug 7.6 03:58:52 12° SSE 03:58:52 12° SSE 03:59:20 10° SSE visible
